Regional Weather Roundup
Issued by NWS

Home | Current Version | Previous Version | Text Only | Print | Product List | Glossary Off
Versions: 1 2 3 4 5 6 7 8 9 10 11 12 13 14 15 16 17 18 19 20 21 22 23 24 25 26 27 28 29 30 31 32 33 34 35 36 37 38 39 40 41 42 43 44 45 46 47 48 49 50

000
ASUS43 KLSX 202107
RWRMO

WEATHER SUMMARY FOR MISSOURI
NATIONAL WEATHER SERVICE SPRINGFIELD MO
300 PM CST SAT JAN 20 2018

NOTE: "FAIR" INDICATES FEW OR NO CLOUDS BELOW 12,000 FEET WITH NO
       SIGNIFICANT WEATHER AND/OR OBSTRUCTIONS TO VISIBILITY.
       CURRENT SKY AND/OR WEATHER CONDITIONS ARE NOT AVAILABLE FOR
       CHILLICOTHE AND FARMINGTON.

MOZ001>031-035>038-043-044-053-054-202200-
...NORTHERN AND WESTERN MISSOURI...

CITY           SKY/WX    TMP DP  RH WIND       PRES   REMARKS
KANSAS CTY INT CLOUDY    51  43  74 S7        29.84S
KANSAS C DTWN  CLOUDY    54  44  69 S7        29.84S
LEE`S SUMMIT   CLOUDY    53  46  77 S9        29.84F
ST JOSEPH      CLOUDY    50  45  83 S8        29.83F
CHILLICOTHE      N/A     52  43  71 S7        29.87F
KIRKSVILLE     CLOUDY    51  45  79 S8        29.88F

$$
MOZ066>068-077>081-088>096-101>105-202200-
...SOUTHWEST MISSOURI...

CITY           SKY/WX    TMP DP  RH WIND       PRES   REMARKS
SPRINGFIELD    SUNNY     64  45  49 S15G23    29.85F
JOPLIN         SUNNY     64  47  53 S16G26    29.83F
BRANSON        MOSUNNY   63  41  45 S9G17     29.92F

$$
MOZ032>034-039>042-045>050-055>058-069>072-202200-
...CENTRAL MISSOURI...

CITY           SKY/WX    TMP DP  RH WIND       PRES   REMARKS
COLUMBIA       CLOUDY    54  44  69 SE7       29.90F
JEFFERSON CITY CLOUDY    57  44  62 SE7       29.90F
ROLLA          SUNNY     58  44  60 S14       29.91F
SEDALIA        CLOUDY    57  48  72 SW7       29.88F
WHITEMAN AFB   CLOUDY    55  46  71 SW7       29.83S
WARRENSBURG    CLOUDY    52  45  76 S7        29.86F
OSAGE BEACH    CLOUDY    61  45  55 S8        29.89F

$$
MOZ051-052-059>065-202200-
...EAST CENTRAL MISSOURI...

CITY           SKY/WX    TMP DP  RH WIND       PRES   REMARKS
ST LOUIS INTL  PTSUNNY   58  44  60 SW6       29.94F
SPIRIT OF STL  MOSUNNY   60  45  57 SW6       29.93F
ST CHARLES     CLOUDY    53  40  61 E9        29.94F

$$
MOZ072>076-082>087-097>100-106>115-202200-
...SOUTH CENTRAL AND SOUTHEAST MISSOURI...

CITY           SKY/WX    TMP DP  RH WIND       PRES   REMARKS
CAPE GIRARDEAU CLOUDY    43  33  68 S13       30.05F
FARMINGTON     SUNNY     59  43  55 S14G21    29.96F
POPLAR BLUFF   CLOUDY    47  37  68 S9        30.04F
WEST PLAINS    MOSUNNY   59  45  59 S15G24    29.96S

$$


USA.gov is the U.S. government's official web portal to all federal, state and local government web resources and services.